This is the latest recevied weather packets stored in our database for station/object N1JOV-7. If no packets are shown the sender has not sent any weather packets the latest 10 day(s).
| Time | Temp. | Humidity | Pressure | Rain* | Wind** | Luminosity | Snow |
|---|---|---|---|---|---|---|---|
| 1777671662 | 16.11° C | 38% | 1008.3 hPa | 0 mm | - | - | - |
| 1777671061 | 16.67° C | 38% | 1008.1 hPa | 0 mm | - | - | - |
| 1777670461 | 16.67° C | 37% | 1008.1 hPa | 0 mm | - | - | - |
| 1777669861 | 16.11° C | 37% | 1008.1 hPa | 0 mm | - | - | - |
| 1777669261 | 16.67° C | 37% | 1008 hPa | 0 mm | - | - | - |
| 1777668662 | 16.67° C | 38% | 1007.8 hPa | 0 mm | - | - | - |
| 1777668062 | 16.67° C | 39% | 1007.8 hPa | 0 mm | - | - | - |
| 1777667462 | 16.67° C | 40% | 1007.5 hPa | 0 mm | - | - | - |
| 1777666862 | 16.11° C | 41% | 1007.5 hPa | 0 mm | - | - | - |
| 1777666262 | 16.11° C | 43% | 1007.5 hPa | 0 mm | - | - | - |
| 1777665661 | 16.11° C | 41% | 1007.6 hPa | 0 mm | - | - | - |
| 1777665061 | 16.67° C | 42% | 1007.4 hPa | 0 mm | - | - | - |
| 1777664461 | 15.56° C | 46% | 1007.5 hPa | 0 mm | - | - | - |
| 1777663862 | 16.11° C | 46% | 1007.4 hPa | 0 mm | - | - | - |
| 1777663262 | 15.56° C | 48% | 1007.4 hPa | 0 mm | - | - | - |
| 1777662662 | 15.56° C | 50% | 1007.6 hPa | 0 mm | - | - | - |
| 1777662062 | 15.56° C | 49% | 1007.5 hPa | 0 mm | - | - | - |
| 1777661462 | 15.56° C | 49% | 1007.4 hPa | 0 mm | - | - | - |
| 1777660861 | 15° C | 51% | 1007.8 hPa | 0 mm | - | - | - |
| 1777660261 | 15° C | 51% | 1007.4 hPa | 0 mm | - | - | - |
| 1777659661 | 16.11° C | 49% | 1007.4 hPa | 0 mm | - | - | - |
| 1777659062 | 14.44° C | 52% | 1007.5 hPa | 0 mm | - | - | - |
| 1777658462 | 14.44° C | 51% | 1007.6 hPa | 0 mm | - | - | - |
| 1777657862 | 15° C | 50% | 1007.5 hPa | 0 mm | - | - | - |
| 1777657262 | 14.44° C | 52% | 1007.7 hPa | 0 mm | - | - | - |
* Rain latest hour (hover to see other rain measurements)
** Current wind speed in m/s (hover to see current wind gust speed)